Preview of NWS' New Version of Forecast
This preview is not operational and should not be used for support decisions.

Regional Weather Roundup (RWR)

Issued by National Weather Service (NWS)

                            
000
ASPQ40 PGUM 250410
RWRPQ 
WEATHER ROUNDUP FOR THE MARIANAS AND MICRONESIA
NATIONAL WEATHER SERVICE TIYAN GU
200 PM CHST SUN AUG 25 2019

GUZ001>004-250500-
MARIANA ISLANDS-
  
CITY           SKY/WX    TMP DP  RH WIND       PRES   REMARKS
GUAM AIRPORT   MOSUNNY   86  75  70 SE13G20   29.79F HX  95           
ANDERSEN AFB   PTSUNNY   84  77  79 S13       29.80S HX  94           
ROTA AIRPORT   PTSUNNY   84  73  70 SE15      29.76F HX  91           
TINIAN AP      PTSUNNY   86  77  74 SE9       29.77F HX  97           
SAIPAN AP      MOSUNNY   88  79  74 SE15      29.79F HX 102           

$$

PMZ161-250500-
REPUBLIC OF PALAU-
  
CITY           SKY/WX    TMP DP  RH WIND       PRES   REMARKS
KOROR AP       CLOUDY    81  73  78 W15G26    29.75F                  
KOROR WSO      NOT AVBL                                               

$$

PMZ171>174-250500-
FEDERATED STATES OF MICRONESIA-
  
CITY           SKY/WX    TMP DP  RH WIND       PRES   REMARKS
YAP AIRPORT    PTSUNNY   84  77  79 VRB7      29.69F HX  94           
CHUUK AP       CLOUDY    86  79  79 VRB6      29.79F HX  99           
POHNPEI AP     NOT AVBL                                               
POHNPEI WSO    PTSUNNY   88  77  70 N3        29.81F HX 100           
KOSRAE AP      NOT AVBL                                               

$$

PMZ181-250500-
REPUBLIC OF THE MARSHALL ISLANDS-
  
CITY           SKY/WX    TMP DP  RH WIND       PRES   REMARKS
KWAJALEIN AP   MOSUNNY   88  79  74 E8        29.76F HX 102           
MAJURO AP      MOSUNNY   88  77  70 SE22      29.75F HX 100           
MAJURO WSO     PTSUNNY   86  77  74 E9        29.74F HX  97           

$$